Weather observations for the past three days for
New Braunfels National Airport
Imperial (Metric)
Date Time (cdt) Wind (mph) Vis. (mi.) Weather Sky Cond. Temperature (ºF) Relative Humidity Wind Chill (°F) Heat Index (°F) Pressure Precipitation (in)
Air Dwpt 6 hour altimeter (in) sea level (mb) 1 hr 3 hr 6 hr
Max. Min.
01 21:51 SE 9 10.00 Fair CLR 86 68 55% 89 29.93 1012.4
01 20:51 E 7 10.00 Fair CLR 89.1 66.9 48% 92 29.9 1011.5
01 19:51 E 10 10.00 Fair CLR 91.9 66.9 44% 95 29.88 1010.9
01 18:51 E 12 10.00 Partly Cloudy SCT080 95 68 99 93 41% 100 29.89 1011.0
01 17:51 Calm 10.00 A Few Clouds FEW110 98.1 64.9 34% 101 29.88 1010.7
01 16:51 Vrbl 3 10.00 Fair CLR 98.1 66 35% 102 29.89 1010.9
01 15:51 Vrbl 6 10.00 Partly Cloudy SCT070 96.1 66 37% 100 29.9 1011.6
01 14:51 Vrbl 3 10.00 A Few Clouds FEW070 95 66 39% 98 29.93 1012.6
01 13:51 Vrbl 5 10.00 A Few Clouds FEW060 96.1 66.9 39% 100 29.96 1013.3
01 12:51 Vrbl 6 10.00 A Few Clouds FEW060 93 68 93.9 73.9 44% 97 29.99 1014.4
01 11:51 Calm 10.00 Fair CLR 90 68 48% 94 30.01 1015.1
01 10:51 Calm 10.00 A Few Clouds FEW025 87.1 72 61% 94 30.02 1015.5
01 09:51 Calm 10.00 Fair CLR 84 73.9 72% 91 30.02 1015.6
01 08:51 Calm 10.00 Fair CLR 81 75 82% 87 30.02 1015.6
01 07:51 Calm 10.00 Fair CLR 75.9 73 91% 76 30 1014.9
01 06:51 Calm 10.00 Fair CLR 75.9 73 80.1 75 91% 76 30 1014.6
01 05:51 Calm 10.00 Fair CLR 75.9 73 91% 76 29.99 1014.5
01 04:51 Calm 10.00 Overcast OVC012 77 73.9 90% 78 29.99 1014.6
01 03:51 Calm 10.00 A Few Clouds FEW012 75.9 73 91% 76 30 1014.6
01 02:51 S 5 10.00 Fair CLR 77 73 88% 78 29.99 1014.7
01 01:51 S 6 10.00 Fair CLR 79 71.1 77% 82 29.99 1014.5
01 00:51 S 6 10.00 Fair CLR 80.1 70 97 80.1 71% 83 29.99 1014.5
31 23:51 SE 10 10.00 Fair CLR 82.9 69.1 63% 87 29.97 1013.9
31 22:51 S 12 G 22 10.00 Fair CLR 86 66.9 53% 89 29.97 1013.7
31 21:51 SE 12 G 21 10.00 Fair CLR 88 69.1 54% 92 29.94 1012.9
31 20:51 SE 8 10.00 Fair CLR 88 68 52% 92 29.92 1012.0
31 19:51 SE 14 10.00 A Few Clouds FEW080 91.9 66.9 44% 95 29.9 1011.5
31 18:51 E 8 10.00 A Few Clouds FEW085 97 63 99 91 33% 99 29.89 1011.1
31 17:51 Vrbl 7 10.00 Partly Cloudy SCT090 98.1 62.1 31% 99 29.89 1011.2
31 16:51 SE 10 10.00 Fair CLR 99 63 31% 101 29.9 1011.5
31 15:51 S 6 10.00 Fair CLR 98.1 64.9 34% 101 29.93 1012.3
31 14:51 Vrbl 6 10.00 Partly Cloudy SCT065 95 66 39% 98 29.96 1013.7
31 13:51 SE 10 G 18 10.00 A Few Clouds FEW060 96.1 68 40% 101 29.99 1014.4
31 12:51 Vrbl 3 10.00 A Few Clouds FEW050 91 69.1 93 75.9 49% 96 30 1015.0
31 11:51 S 9 10.00 Fair CLR 90 70 52% 95 30.02 1015.7
31 10:51 S 8 10.00 A Few Clouds FEW025 FEW039 87.1 73 63% 95 30.03 1015.8
31 09:51 SW 3 10.00 Partly Cloudy SCT014 SCT019 84 75 74% 92 30.02 1015.4
31 08:51 Calm 10.00 Partly Cloudy SCT005 SCT018 79 75.9 90% 83 30.01 1015.2
31 07:51 E 3 10.00 Fair CLR 75 73.9 96% 73 30 1014.8
31 06:51 E 3 10.00 Partly Cloudy SCT015 75 73 80.1 73.9 94% 73 29.99 1014.4
31 05:51 NE 3 10.00 Partly Cloudy SCT016 73.9 73 97% 29.98 1014.3
31 04:51 Calm 10.00 Partly Cloudy SCT018 75.9 73.9 94% 75 29.99 1014.3
31 03:51 Calm 10.00 A Few Clouds FEW014 75.9 73.9 94% 75 29.98 1014.4
31 02:51 S 5 10.00 Fair CLR 77 73.9 90% 78 29.99 1014.5
31 01:51 S 7 10.00 Fair CLR 78.1 73.9 87% 81 29.99 1014.7
31 00:51 S 8 10.00 Fair CLR 80.1 72 95 80.1 76% 84 29.99 1014.4
30 23:51 S 12 10.00 Fair CLR 82 71.1 69% 86 29.98 1014.1
30 22:51 S 13 10.00 Fair CLR 84 71.1 65% 89 29.97 1013.7
30 21:51 S 14 10.00 Fair CLR 87.1 70 57% 92 29.94 1013.0
30 20:51 S 10 10.00 Fair CLR 88 70 55% 93 29.91 1011.8
30 19:51 S 13 10.00 Partly Cloudy SCT075 SCT090 91 69.1 49% 96 29.89 1011.3
30 18:51 SE 9 10.00 A Few Clouds FEW085 93.9 64.9 98.1 90 38% 96 29.88 1010.7
30 17:51 S 9 10.00 Fair CLR 95 66 39% 98 29.89 1011.0
30 16:51 SE 10 G 16 10.00 Fair CLR 97 66 36% 101 29.89 1011.3
30 15:51 S 9 G 17 10.00 Partly Cloudy SCT065 95 66.9 40% 99 29.92 1012.2
30 14:51 S 8 G 17 10.00 Partly Cloudy SCT060 95 66.9 40% 99 29.95 1013.1
30 13:51 S 8 10.00 Mostly Cloudy BKN060 93.9 68 43% 98 29.98 1014.3
30 12:51 Vrbl 3 10.00 Partly Cloudy SCT049 91 69.1 91.9 75.9 49% 96 30.01 1015.3
30 11:51 Calm 10.00 Mostly Cloudy BKN037 90 71.1 54% 96 30.03 1015.9
30 10:51 SW 10 10.00 Fair CLR 87.1 73 63% 95 30.04 1016.1
30 09:51 SW 8 10.00 Mostly Cloudy SCT014 BKN021 82 75 79% 89 30.03 1016.0
30 08:51 S 6 10.00 Mostly Cloudy SCT009 BKN021 79 73.9 85% 83 30.03 1015.9
30 07:51 Vrbl 3 10.00 Mostly Cloudy BKN010 BKN020 75.9 73.9 94% 75 30.02 1015.6
30 06:51 SW 5 10.00 Mostly Cloudy BKN010 BKN015 BKN020 75.9 73.9 79 73.9 94% 75 30 1015.0
30 05:51 SW 3 10.00 Overcast OVC010 75.9 73 91% 76 30 1014.7
30 04:51 SW 5 10.00 Mostly Cloudy BKN012 73.9 72 94% 29.99 1014.7
30 03:51 S 5 10.00 Fair CLR 75 71.1 88% 75 30 1014.8
30 02:51 S 5 10.00 Fair CLR 75.9 71.1 85% 76 30 1015.0
30 01:51 S 6 10.00 Fair CLR 78.1 71.1 79% 80 30.01 1015.1
30 00:51 S 8 10.00 Fair CLR 79 70 96.1 79 74% 82 30.01 1015.3
29 23:51 S 6 10.00 Fair CLR 80.1 70 71% 83 30.01 1015.2
29 22:51 S 13 10.00 Fair CLR 84 70 63% 88 30 1014.8
Date Time (cdt) Wind (mph) Vis. (mi.) Weather Sky Cond. Air Dwpt Max. Min. Relative Humidity Wind Chill (°F) Heat Index (°F) altimeter (in) sea level (mb) 1 hr 3 hr 6 hr
6 hour
Temperature (ºF) Pressure Precipitation (in)